Regional Weather Roundup
Issued by NWS

Home | Current Version | Previous Version | Text Only | Print | Product List | Glossary Off
Versions: 1 2 3 4 5 6 7 8 9 10 11 12 13 14 15 16 17 18 19 20 21 22 23 24 25 26 27 28 29 30 31 32 33 34 35 36 37 38 39 40 41 42 43 44 45 46 47 48 49 50

000
ASUS43 KFSD 100402
RWRSD

WEATHER ROUNDUP FOR SOUTH DAKOTA
NATIONAL WEATHER SERVICE SIOUX FALLS SD
1000 PM CST FRI DEC 09 2016

NOTE: "FAIR" INDICATES FEW OR NO CLOUDS BELOW 12,000 FEET WITH NO
SIGNIFICANT WEATHER AND/OR OBSTRUCTIONS TO VISIBILITY.


SDZ001>005-009-010-012>017-100500-
NORTHWEST AND NORTH CENTRAL SOUTH DAKOTA

CITY           SKY/WX    TMP DP  RH WIND       PRES   REMARKS
BUFFALO          N/A     -4  -8  83 E8        30.20F WCI -19
FAITH            N/A     -6  -8  91 E5        30.39R WCI -17
MOBRIDGE       CLOUDY    -5 -11  75 NW6       30.47R HAZE    WCI -18
$$

SDZ012>016-024>037-041>051-057-063-072>074-100500-
SOUTHWEST AND SOUTH CENTRAL SOUTH DAKOTA

CITY           SKY/WX    TMP DP  RH WIND       PRES   REMARKS
RAPID CTY ARPT CLOUDY     1  -4  79 SE8       30.29F WCI -13
PIERRE         CLOUDY    -7 -11  83 N8        30.48F WCI -23
CUSTER         CLOUDY     3  -4  72 CALM      30.03F
ELLSWORTH AFB  CLOUDY     2  -3  80 SE10      30.27F WCI -14
PHILIP         CLOUDY     1  -3  83 E6        30.44S WCI -10
PINE RIDGE     CLOUDY     3   1  91 SE3       30.29F
SPEARFISH      CLOUDY     0  -6  78 NE5       30.18F WCI -10
WINNER         CLOUDY     7   3  84 NE7       30.44F WCI  -5
$$

SDZ004>011-016>023-039-040-100500-
NORTHEAST SOUTH DAKOTA

CITY           SKY/WX    TMP DP  RH WIND       PRES   REMARKS
ABERDEEN       CLOUDY    -4 -12  68 N7        30.54F WCI -18
WATERTOWN      CLOUDY     1  -4  79 N3        30.46F
SISSETON         N/A     -2  -7  79 NW7       30.54R WCI -15
$$

SDZ017-020-022-023-036>040-048>070-100500-
SOUTHEAST SOUTH DAKOTA

CITY           SKY/WX    TMP DP  RH WIND       PRES   REMARKS
SIOUX FALLS    LGT SNOW  13   9  84 N3        30.47F FOG
HURON          CLOUDY     5   1  83 CALM      30.52F
CHAMBERLAIN    CLOUDY     7   2  80 NE3       30.48F
MITCHELL       CLOUDY     7   2  80 N8        30.52F WCI  -6
YANKTON        CLOUDY    16  10  79 CALM      30.48S
$$

ABBREVIATIONS USED IN REMARKS
   TC - TEMPERATURE IN CELSIUS
  WCI - WIND CHILL INDEX
   HX - HEAT INDEX
  VSB - VISIBILITY





USA.gov is the U.S. government's official web portal to all federal, state and local government web resources and services.